Regional Weather Roundup
Issued by NWS

Home | Current Version | Previous Version | Graphics & Text | Print | Product List | Glossary On
Versions: 1 2 3 4 5 6 7 8 9 10 11 12 13 14 15 16 17 18 19 20 21 22 23 24 25 26 27 28 29 30 31 32 33 34 35 36 37 38 39 40 41 42 43 44 45 46 47 48 49 50
000
ASUS43 KBIS 162259
RWRND

NORTH DAKOTA REGIONAL WEATHER ROUNDUP
NATIONAL WEATHER SERVICE BISMARCK ND
600 PM CDT WED APR 16 2014

NOTE: "FAIR" INDICATES FEW OR NO CLOUDS BELOW 12,000 FEET WITH NO
SIGNIFICANT WEATHER AND/OR OBSTRUCTIONS TO VISIBILITY.


NDZ001>003-009>011-017-170000-
NORTHWEST NORTH DAKOTA

CITY           SKY/WX    TMP DP  RH WIND       PRES   REMARKS
WILLISTON      CLOUDY    29  23  78 E14       30.22R WCI  18
MINOT          CLOUDY    34  18  52 N9        30.22R
$$

NDZ018>021-031>035-040>046-170000-
SOUTHWEST NORTH DAKOTA

CITY           SKY/WX    TMP DP  RH WIND       PRES   REMARKS
BISMARCK       CLOUDY    36  17  46 NE15      30.18R
DICKINSON      CLOUDY    29  21  72 NE13      30.13R WCI  19
GARRISON         N/A     32  19  58 E10G16    30.19S
HETTINGER ARPT CLOUDY    31  22  69 NE9       30.12R
$$

NDZ004>008-012>016-024-026-027-054-170000-
NORTHEAST NORTH DAKOTA

CITY           SKY/WX    TMP DP  RH WIND       PRES   REMARKS
GRAND FORKS    MOSUNNY   39  12  33 NE20G28   30.16R
DEVILS LAKE    SUNNY     36  10  35 NE20      30.21R
$$

NDZ022-023-025-028>030-036>039-047>053-170000-
SOUTHEAST NORTH DAKOTA

CITY           SKY/WX    TMP DP  RH WIND       PRES   REMARKS
FARGO          CLOUDY    38  23  55 NE13      30.14R
JAMESTOWN      MOSUNNY   39  17  41 NE18      30.14R
$$




USA.gov is the U.S. government's official web portal to all federal, state and local government web resources and services.